Skip Page Navigation
NASA JPL Caltech
NASA Logo - Jet Propulsion Laboratory + View the NASA Portal
+ Near-Earth Object (NEO) Program
Search JPL
JPL Home Earth Solar System Stars & Galaxies Technology
JPL Solar System Dynamics
BODIES ORBITS EPHEMERIDES TOOLS PHYSICAL DATA DISCOVERY FAQ SITE MAP
JPL Small-Body Database Browser
Search: [ help ]  
114024 Scotkleinman (2002 UB62)
Classification: Main-belt Asteroid          SPK-ID: 2114024
Ephemeris | Orbit Diagram | Orbital Elements | Physical Parameters | Discovery Circumstances | Close-Approach Data ]

[ show orbit diagram ]
Orbital Elements at Epoch 2457000.5 (2014-Dec-09.0) TDB
Reference: JPL 12 (heliocentric ecliptic J2000)
 Element Value Uncertainty (1-sigma)   Units 
e .08685499055105063 9.2323e-08  
a 2.773433681569367 3.9819e-08 AU
q 2.532547125362694 2.6959e-07 AU
i 8.318078718699629 7.405e-06 deg
node 222.8002518190067 5.5299e-05 deg
peri 335.4575333838782 7.2544e-05 deg
M 19.13894444274545 4.6725e-05 deg
tp 2456910.810709997972
(2014-Sep-10.31071000)
0.00021935 JED
period 1687.03893244065
4.62
3.6332e-05
9.947e-08
d
yr
n .2133916373104596 4.5955e-09 deg/d
Q 3.01432023777604 4.3277e-08 AU
  Orbit Determination Parameters
   # obs. used (total)      242  
   data-arc span      6088 days (16.67 yr)  
   first obs. used      1998-10-15  
   last obs. used      2015-06-16  
   planetary ephem.      DE431  
   SB-pert. ephem.      SB431-BIG16  
   condition code      0  
   fit RMS      .5386  
   data source      ORB  
   producer      Otto Matic  
   solution date      2015-Jul-06 14:37:17  

Additional Information
 Earth MOID = 1.53339 AU 
 T_jup = 3.315 
[ show covariance matrix ]

Ephemeris | Orbit Diagram | Orbital Elements | Physical Parameters | Discovery Circumstances | Close-Approach Data ]

Physical Parameter Table
Parameter Symbol Value Units Sigma Reference Notes
absolute magnitude H 15.7 mag n/a MPO280540  

114024 Scotkleinman           Discovered 2002 Oct. 30 by the Sloan Digital Sky Survey at the Apache Point Observatory.
Scot J. Kleinman (b. 1965) is an American astronomer and a significant contributor to the Sloan Digital Sky Survey.
NOTE: some special characters may not display properly (any characters within {} are an attempt to place the proper accent above a character)
Reference: 20110517/MPCPages.arcLast Updated: 2011-06-24

[ show close-approach data ]
Ephemeris | Orbit Diagram | Orbital Elements | Physical Parameters | Discovery Circumstances | Close-Approach Data ]
ABOUT SSD CREDITS/AWARDS PRIVACY/COPYRIGHT GLOSSARY LINKS
FirstGov 2015-Jul-30 06:09 UT
(server date/time)  
NASA Home Page
Site Manager:   Ryan S. Park
Webmaster  Alan B. Chamberlin